Погода в Большом Чеменеве

Россия / Чувашская Республика     55°01′27″N   47°14′45″E
темп.,
°C
ветер,
м/с
пор.,
м/с
влажн.,
%
обл.,
%
осадки,
мм/ч
давл.,
гПа
погр.,
м
11 мая, вт
вт1100:00+13ссв5139346 0.0 1022367
03:00+12св4119694 0.0 1023279
06:00+13св488994 0.0 1023223
09:00+19всв356086 0.0 1024444
12:00+23в4544100 0.0 10251376
15:00+23в4645100 0.0 10252327
18:00+20ююв2558100 0.0 1026161
21:00+17св1160100 0.1 102711
12 мая, ср
ср1200:00+15ююв11716 0.0 102711
03:00+14св227330 0.0 102721
06:00+16в26756 0.0 1027170
09:00+21вюв475322 0.0 1027802
12:00+23юв6104196 0.0 10272269
15:00+19юв385444 0.0 1026638
18:00+20юв36555 0.0 1026304
21:00+15вюв22619 0.0 102633
13 мая, чт
чт1300:00+14юв226617 0.0 102611
03:00+13в227098 0.0 102626
06:00+15вюв3107039 0.0 1026358
09:00+20вюв6104527 0.0 1025822
12:00+21ююв4749100 0.0 10241141
15:00+18вюв41067100 0.6 1024548
18:00+18в41174100 0.0 1023407
21:00+17вюв41272100 0.1 1023368
14 мая, пт
пт1400:00+14юв312818 0.0 1022244
03:00+13юв3117659 0.1 1022223
06:00+16юв31366100 0.1 1022408
09:00+21ю474663 0.1 1021598
12:00+24ю5747100 0.0 10211052
15:00+25ююз5849100 0.0 10211539
18:00+23ю4858100 0.0 1020391
21:00+17ююв226858 0.0 102035
15 мая, сб
сб1500:00+16ююв310655 0.0 1020198
03:00+15ююв396241 0.0 1020162
06:00+17ююв31058100 0.0 1020258
09:00+24ю5939100 0.0 1019501
12:00+26ю5935100 0.0 1019883
15:00+26ю5833100 0.0 10181167
18:00
21:00+18ююв4135928 0.0 1017262